Weather History for Baker, MT

Change the Weather History Date:

Thursday, April 24, 2014

  Actual Average Record
Temperature  
Mean Temperature 48 °F -  
Max Temperature 61 °F 52 °F 89 °F (2012)
Min Temperature 36 °F 28 °F 25 °F (2002)
Degree Days  
Heating Degree Days 16    
Moisture  
Dew Point 23 °F    
Average Humidity 41    
Maximum Humidity 67    
Minimum Humidity 17    
Precipitation  
Precipitation 0.00 in - - ()
Sea Level Pressure  
Sea Level Pressure 29.79 in    
Wind  
Wind Speed 13 mph (West)    
Max Wind Speed 24 mph    
Max Gust Speed 36 mph    
Visibility 10 miles    
Events      
Averages and records for this station are not official NWS values.
T = Trace of Precipitation, MM = Missing Value Source: NWS Daily Summary

Daily Weather History Graph

Daily Weather History Graph

Search for Another Location

Airport:

Trip Planner

Search our weather history database for the weather conditions in past years. The results will help you decide how hot, cold, wet, or windy it might be!

Date:

Astronomy

Apr. 24, 2014 Rise Set
Actual Time 5:54 AM MDT 7:56 PM MDT
Civil Twilight 5:21 AM MDT 8:29 PM MDT
Nautical Twilight 4:41 AM MDT 9:09 PM MDT
Astronomical Twilight 3:57 AM MDT 9:54 PM MDT
Moon 3:24 AM MDT (4/24) 2:58 PM MDT (4/24)
Length of Visible Light 15h 07m
Length of Day
14h 02m
Waning Crescent, 24% of the Moon is Illuminated
Apr 24
Waning Crescent
Apr 29
New
May 6
First Quarter
May 14
Full
May 21
Last Quarter

Hourly Weather History & Observations

Time (MDT) Temp. Windchill Dew Point Humidity Pressure Visibility Wind Dir Wind Speed Gust Speed Precip Events Conditions
12:51 AM 39.0 °F 32.3 °F 23.0 °F 53% 29.79 in 10.0 mi West 10.4 mph - N/A   Clear
1:51 AM 37.0 °F 29.8 °F 21.9 °F 54% 29.81 in 10.0 mi WSW 10.4 mph - N/A   Clear
2:51 AM 36.0 °F 27.5 °F 23.0 °F 59% 29.81 in 10.0 mi SW 12.7 mph - N/A   Clear
3:51 AM 37.0 °F 29.3 °F 23.0 °F 57% 29.81 in 10.0 mi WSW 11.5 mph - N/A   Scattered Clouds
4:51 AM 43.0 °F 36.0 °F 24.1 °F 47% 29.80 in 10.0 mi WSW 13.8 mph - N/A   Overcast
5:51 AM 37.0 °F 29.3 °F 24.1 °F 59% 29.81 in 10.0 mi WSW 11.5 mph - N/A   Partly Cloudy
6:51 AM 39.9 °F 33.4 °F 25.0 °F 55% 29.82 in 10.0 mi WSW 10.4 mph - N/A   Scattered Clouds
7:51 AM 45.0 °F 37.9 °F 27.0 °F 49% 29.83 in 10.0 mi West 16.1 mph - N/A   Clear
8:51 AM 48.9 °F - 24.1 °F 38% 29.83 in 10.0 mi WNW 20.7 mph - N/A   Clear
9:51 AM 51.1 °F - 24.1 °F 35% 29.82 in 10.0 mi WNW 19.6 mph 28.8 mph N/A   Clear
10:51 AM 52.0 °F - 21.0 °F 30% 29.82 in 10.0 mi West 23.0 mph 32.2 mph N/A   Clear
11:51 AM 55.0 °F - 19.9 °F 25% 29.81 in 10.0 mi WNW 17.3 mph 34.5 mph N/A   Partly Cloudy
12:51 PM 57.0 °F - 18.0 °F 22% 29.79 in 10.0 mi WNW 24.2 mph 35.7 mph N/A   Clear
2:51 PM 59.0 °F - 15.1 °F 18% 29.77 in 10.0 mi NW 21.9 mph 34.5 mph N/A   Partly Cloudy
3:51 PM 60.1 °F - 15.1 °F 17% 29.75 in 10.0 mi West 21.9 mph 27.6 mph N/A   Clear
4:51 PM 61.0 °F - 18.0 °F 19% 29.73 in 10.0 mi WNW 15.0 mph 26.5 mph N/A   Clear
5:51 PM 57.0 °F - 21.0 °F 25% 29.76 in 10.0 mi WNW 16.1 mph - N/A   Mostly Cloudy
6:51 PM 55.9 °F - 23.0 °F 28% 29.75 in 10.0 mi WNW 10.4 mph - N/A   Mostly Cloudy
8:51 PM 53.1 °F - 28.9 °F 40% 29.78 in 10.0 mi WNW 11.5 mph - N/A   Overcast
9:51 PM 50.0 °F - 32.0 °F 50% 29.79 in 10.0 mi NNW 5.8 mph - N/A   Overcast
10:51 PM 45.0 °F 43.5 °F 33.1 °F 63% 29.78 in 10.0 mi SSE 3.5 mph - N/A   Partly Cloudy
11:51 PM 42.1 °F 38.4 °F 32.0 °F 67% 29.78 in 10.0 mi South 5.8 mph - N/A   Partly Cloudy